Cheyenne, WY

1:18 PM MST on February 20, 2018 (GMT -0700)
Cheyenne

Weather History for KCYS - October, 2012

Change the Weather History Date:

Wednesday, October 31, 2012

  Actual Average Record
Temperature  
Mean Temperature 50 °F 42 °F  
Max Temperature 65 °F 54 °F 74 °F (1887)
Min Temperature 35 °F 30 °F -1 °F (1991)
Degree Days  
Heating Degree Days 15 23  
Month to date heating degree days 632 579  
Since 1 July heating degree days 802 859  
Cooling Degree Days 0 0  
Month to date cooling degree days 0 0  
Year to date cooling degree days 568 348  
Moisture  
Dew Point 26 °F    
Average Humidity 49    
Maximum Humidity 75    
Minimum Humidity 22    
Precipitation  
Precipitation 0.00 in 0.02 in 0.81 in (1889)
Month to date precipitation 1.13 0.93  
Year to date precipitation 9.56 14.86  
Snow  
Snow 0.00 in 0.20 in 8.80 in (1889)
Month to date snowfall 10.2 5.0  
Since 1 July snowfall 10.2 6.3  
Snow Depth 0.00 in    
Sea Level Pressure  
Sea Level Pressure 30.06 in    
Wind  
Wind Speed 10 mph (WNW)    
Max Wind Speed 21 mph    
Max Gust Speed 29 mph    
Visibility 10 miles    
Events Snow    
T = Trace of Precipitation, MM = Missing Value Source: NWS Daily Summary

Daily Weather History Graph

Daily Weather History Graph

Search for Another Location

Airport or City:

Trip Planner

Search our weather history database for the weather conditions in past years. The results will help you decide how hot, cold, wet, or windy it might be!

Date:

Astronomy

Oct. 31, 2012 Rise Set
Actual Time 7:29 AM MDT 5:55 PM MDT
Civil Twilight 7:01 AM MDT 6:23 PM MDT
Nautical Twilight 6:28 AM MDT 6:56 PM MDT
Astronomical Twilight 5:56 AM MDT 7:28 PM MDT
Moon 7:07 PM MDT (10/31) 9:14 AM MDT (10/31)
Length of Visible Light 11h 22m
Length of Day
10h 25m
Full, 97% of the Moon is Illuminated
Oct 31
Full
Nov 6
Last Quarter
Nov 13
New
Nov 20
First Quarter
Nov 28
Full

Hourly Weather History & Observations

Time (MDT) Temp. Windchill Dew Point Humidity Pressure Visibility Wind Dir Wind Speed Gust Speed Precip Events Conditions
12:53 AM 37.0 °F 31.0 °F 28.9 °F 73% 30.06 in 10.0 mi West 8.1 mph - N/A   Clear
1:53 AM 36.0 °F 30.3 °F 28.0 °F 73% 30.06 in 10.0 mi WSW 6.9 mph - 0.00 in   Clear
2:53 AM 43.0 °F 36.8 °F 27.0 °F 53% 30.02 in 10.0 mi West 11.5 mph - 0.00 in   Clear
3:53 AM 46.9 °F - 26.1 °F 44% 29.99 in 10.0 mi WNW 17.3 mph - N/A   Clear
4:53 AM 43.0 °F 38.2 °F 25.0 °F 49% 30.01 in 10.0 mi WNW 8.1 mph - 0.00 in   Clear
5:53 AM 39.0 °F 31.4 °F 26.1 °F 60% 30.04 in 10.0 mi West 12.7 mph - N/A   Clear
6:53 AM 46.0 °F 39.6 °F 25.0 °F 44% 30.04 in 10.0 mi WNW 15.0 mph - N/A   Clear
7:53 AM 46.9 °F - 24.1 °F 41% 30.07 in 10.0 mi NW 10.4 mph - N/A   Clear
8:53 AM 50.0 °F - 26.1 °F 39% 30.07 in 10.0 mi WNW 8.1 mph - 0.00 in   Clear
9:53 AM 54.0 °F - 28.0 °F 37% 30.10 in 10.0 mi SW 5.8 mph - N/A   Clear
10:53 AM 60.1 °F - 25.0 °F 26% 30.08 in 10.0 mi WNW 15.0 mph 23.0 mph N/A   Clear
11:53 AM 62.1 °F - 24.1 °F 23% 30.08 in 10.0 mi NNW 16.1 mph 25.3 mph N/A   Clear
12:53 PM 62.1 °F - 24.1 °F 23% 30.06 in 10.0 mi NNW 17.3 mph 25.3 mph N/A   Clear
1:53 PM 62.1 °F - 25.0 °F 24% 30.05 in 10.0 mi NW 12.7 mph - N/A   Clear
2:53 PM 64.9 °F - 25.0 °F 22% 29.99 in 10.0 mi North 12.7 mph 17.3 mph N/A   Clear
3:53 PM 63.0 °F - 24.1 °F 23% 30.00 in 10.0 mi North 13.8 mph 18.4 mph N/A   Clear
4:53 PM 60.1 °F - 26.1 °F 27% 30.04 in 10.0 mi Variable 3.5 mph - N/A   Clear
5:53 PM 57.0 °F - 26.1 °F 30% 30.07 in 10.0 mi Calm Calm - N/A   Clear
6:53 PM 48.9 °F - 28.0 °F 44% 30.09 in 10.0 mi WNW 4.6 mph - N/A   Clear
7:53 PM 44.1 °F 39.5 °F 30.0 °F 58% 30.11 in 10.0 mi WNW 8.1 mph - N/A   Clear
8:53 PM 45.0 °F 40.6 °F 28.0 °F 52% 30.09 in 10.0 mi WNW 8.1 mph - N/A   Clear
9:53 PM 39.9 °F 33.4 °F 28.9 °F 65% 30.10 in 10.0 mi West 10.4 mph - N/A   Clear
10:53 PM 37.9 °F 32.1 °F 28.9 °F 70% 30.08 in 10.0 mi West 8.1 mph - 0.00 in Snow Light Snow
11:53 PM 37.9 °F 32.1 °F 28.9 °F 70% 30.06 in 10.0 mi West 8.1 mph - 0.00 in   Clear